STARLINK-3871 (52496 NORAD) Tracking and Keplerian Element Data
This shows tracking and keplerian element data for the satellite.
Feedback or suggestion? Click here.
Element | Value |
Catalog | 52496 |
Name | STARLINK-3871 |
Epoch Orbit | 130 |
Epoch Day | 167.08334491 |
Epoch Year | 2022 |
RAAN | 63.0808 |
Inclination | 53.2171 |
Eccentricity | 0.000113 |
Argument of Perigee | 74.2851 |
Mean Anonmoly | 273.393 |
Mean Motion | 15.73258849 |
Decay Rate | -0.00031438 |
L1 | 1 52496U 22049AX 22167.08334491 -.00031438 00000+0 -21986-3 0 9992 |
L2 | 2 52496 53.2171 63.0808 0001130 74.2851 273.3930 15.73258849 1307 |
Live tracking and technical data element details for STARLINK-3871 (NORAD 52496). STARLINK-3871 can be tracked NOW for your location showing map with azimuth and elevation plus other details from your city location.
Track the satellite on the map from your city or location and see movement details for azimuth, elevation, latitude, longitude, range, height, and movement on the map or in text.
IsCatalogInMostPopularTable: catalog: 52496, numindb: 1
Update: records affected: 1
GetName: 52496 STARLINK-3871
Hit Count: updated at: Mon, 27 Jun 2022 05:53:30 GMT